Location: Kaiser
(34.0939°N, 117.4889°W)
Time: 02:20:58
(UTC+00:00)

CZ-4B R/B - Pass Details

Date: 29 October 2020
Orbit: 388 x 462 km, 97.6° (Epoch: 26 November)

Event Time Altitude Azimuth Distance (km) Brightness Sun altitude
Rises 13:35:47 0° 207° (SSW) 2,479 5.0 -7.2°
Reaches altitude 10° 13:38:42 10° 235° (SW) 1,609 3.8 -6.6°
Maximum altitude 13:40:28 13° 265° (W) 1,412 3.3 -6.3°
Drops below altitude 10° 13:42:13 10° 296° (WNW) 1,609 3.6 -5.9°
Sets 13:45:08 0° 324° (NW) 2,479 4.7 -5.3°
Enters shadow 13:45:15 - 325° (NW) 2,518 4.7 -5.3°
